Regional Weather Roundup
Issued by NWS

Home | Current Version | Previous Version | Graphics & Text | Print | Product List | Glossary On
Versions: 1 2 3 4 5 6 7 8 9 10 11 12 13 14 15 16 17 18 19 20 21 22 23 24 25 26 27
000
ASUS45 KCYS 170310
RWRWY

WYOMING REGIONAL WEATHER ROUNDUP
NATIONAL WEATHER SERVICE CHEYENNE WY
900 PM MDT MON OCT 16 2017

NOTE:  "FAIR" INDICATES FEW OR NO CLOUDS BELOW 12,000 FEET
WITH NO SIGNIFICANT WEATHER AND/OR OBSTRUCTIONS TO VISIBILITY.

WYZ001-170400-
YELLOWSTONE NATIONAL PARK

CITY           SKY/WX    TMP DP  RH WIND       PRES   REMARKS
LK YELLOWSTONE   N/A     27  19  72 CALM      30.40F
W YELLOWSTONE  NOT AVBL

$$
WYZ002>013-054>058-071-098>099-170400-
NORTHERN WYOMING

CITY           SKY/WX    TMP DP  RH WIND       PRES   REMARKS
JACKSON        NOT AVBL
CODY           NOT AVBL
GREYBULL       FAIR      50  25  37 SE6       30.16R
WORLAND        FAIR      42  29  59 SW5       30.17R
SHERIDAN       FAIR      40  27  59 CALM      30.12S
BUFFALO        FAIR      48  19  31 SW8       30.18F
GILLETTE       FAIR      43  24  47 SW5       30.14S
HULETT         FAIR      50  27  40 S9        30.14S
NEWCASTLE      FAIR      46  27  46 N3        30.16R

$$
WYZ014>020-022>026-101>103-170400-
CENTRAL WYOMING

CITY           SKY/WX    TMP DP  RH WIND       PRES   REMARKS
BIG PINEY      FAIR      36  14  40 CALM      30.38R
PINEDALE       FAIR      32  18  55 NE3       30.39S
DUBOIS         FAIR      39  16  38 NW12      30.34S WCI  32
LANDER         NOT AVBL
RIVERTON       FAIR      50  20  30 W8        30.23S
CASPER         FAIR      43  19  38 NE3       30.23R
DOUGLAS        FAIR      47  19  33 W3        30.21R

$$
WYZ021-027>030-104>119-170400-
SOUTHERN WYOMING

CITY           SKY/WX    TMP DP  RH WIND       PRES   REMARKS
EVANSTON       FAIR      48   4  16 SW6       30.41S
KEMMERER       FAIR      43   9  24 W6        30.41S
FORT BRIDGER   FAIR      47   1  15 SW13      30.43S
ROCK SPRINGS   FAIR      46   7  20 W9        30.36R
DIXON          FAIR      36  12  37 E3        30.39S
RAWLINS        FAIR      46   7  20 SW9       30.33S
SARATOGA       FAIR      41  12  30 SW8       30.37S
LARAMIE        FAIR      40  11  30 W10       30.34S WCI  33
CHEYENNE       FAIR      47  13  25 CALM      30.29R
TORRINGTON     FAIR      57  18  21 SW5       30.17S
PINE BLUFFS    FAIR      39  21  48 CALM      30.25S

$$




USA.gov is the U.S. government's official web portal to all federal, state and local government web resources and services.